Home > Weather > Jelgava > Past weeks

Flag for Latvia Weather for the Past 2 Weeks in Jelgava, Latvia

Now
34 °F

Low clouds.


Feels Like: 34 °F
Forecast: 30 / 36 °F
Wind: No wind

Location: Riga Airport

Current Time: Feb 14, 2016 at 11:35:41 PM

Latest Report: Feb 14, 2016 at 11:20 PM


Visibility: 6 mi

Pressure: 29.53 "Hg

Humidity: 100%

Dew point: 34 °F

Location of JelgavaLocation

Historic Weather in Jelgava — Graph

°F

Jelgava Temperature Yesterday

Maximum temperature yesterday: 37 °F (at 6:20 PM)
Minimum temperature yesterday: 32 °F (at 8:20 AM)
Average temperature yesterday: 35 °F

High & Low Weather Summary for the Past Weeks

 TemperatureHumidityPressure
High46 °F (Feb 10, 12:50 PM)100% (Jan 31, 12:50 AM)30.07 "Hg (Jan 31, 12:50 AM)
Low28 °F (Feb 4, 7:20 AM)61% (Feb 5, 2:20 PM)29.09 "Hg (Feb 3, 8:20 AM)
Average37 °F91%29.49 "Hg
* Reported Jan 30 10:20 PM — Feb 14 10:20 PM, Jelgava, Weather by CustomWeather, © 2016

Note: Actual official high and low records may vary slightly from our data, if they occured in-between our weather recording intervals... More about our weather records

Advertising

Jelgava Weather History for the Previous 24 Hours

 ConditionsComfort  
Time TempWeatherWind HumidityBarometerVisibility
10:20 PM
Sun, Feb 14
34 °FLow clouds.No wind100%29.53 "HgN/A
9:50 PM34 °FLow clouds.No wind100%29.53 "HgN/A
9:20 PM34 °FLow clouds.No wind100%29.53 "HgN/A
8:50 PM34 °FLow clouds.2 mph100%29.50 "HgN/A
8:20 PM34 °FLow clouds.3 mph100%29.50 "HgN/A
7:50 PM34 °FMostly cloudy.5 mph100%29.50 "HgN/A
7:20 PM34 °FLow clouds.5 mph100%29.50 "HgN/A
6:50 PM34 °FLow clouds.5 mph100%29.50 "HgN/A
6:20 PM36 °FLow clouds.5 mph93%29.50 "HgN/A
5:50 PM36 °FLow clouds.5 mph93%29.47 "HgN/A
5:20 PM36 °FLow clouds.3 mph93%29.47 "HgN/A
4:50 PM36 °FDrizzle. Low clouds.3 mph93%29.47 "HgN/A
4:20 PM36 °FDrizzle. Low clouds.5 mph93%29.47 "HgN/A
3:50 PM36 °FMore clouds than sun.6 mph93%29.47 "Hg6 mi
3:20 PM36 °FMore clouds than sun.6 mph93%29.47 "HgN/A
2:50 PM36 °FMostly cloudy.6 mph93%29.47 "HgN/A
2:20 PM36 °FMostly cloudy.7 mph93%29.47 "HgN/A
1:50 PM36 °FMostly cloudy.6 mph93%29.47 "HgN/A
1:20 PM36 °FDrizzle. Mostly cloudy.7 mph93%29.47 "HgN/A
12:50 PM36 °FLight rain. Mostly cloudy.7 mph93%29.47 "Hg6 mi
12:20 PM36 °FLight rain. Mostly cloudy.7 mph93%29.47 "Hg6 mi
11:50 AM36 °FLight rain. Mostly cloudy.7 mph93%29.47 "Hg5 mi
11:20 AM34 °FLight rain. Low clouds.7 mph100%29.47 "Hg4 mi
10:50 AM34 °FLight rain. Mostly cloudy.7 mph100%29.47 "HgN/A
10:20 AM34 °FLight rain. Mostly cloudy.8 mph100%29.47 "Hg5 mi
9:20 AM34 °FLight rain. Mostly cloudy.7 mph100%29.47 "Hg5 mi
8:50 AM34 °FLight rain. Mostly cloudy.8 mph100%29.47 "Hg6 mi
8:20 AM34 °FLight rain. Mostly cloudy.7 mph93%29.47 "Hg4 mi
7:50 AM34 °FLight rain. Mostly cloudy.7 mph100%29.47 "Hg4 mi
7:20 AM34 °FLight rain. Mostly cloudy.7 mph93%29.47 "Hg6 mi
6:50 AM34 °FLight rain. Mostly cloudy.6 mph100%29.47 "HgN/A
6:20 AM34 °FLight snow. Low clouds.6 mph100%29.47 "Hg5 mi
5:50 AM32 °FLight snow. Low clouds.6 mph100%29.47 "Hg4 mi
5:20 AM34 °FLight snow. Low clouds.6 mph93%29.50 "Hg4 mi
4:50 AM34 °FLight rain. Low clouds.6 mph93%29.50 "Hg6 mi
4:20 AM34 °FLight rain. Low clouds.7 mph93%29.50 "Hg4 mi
3:20 AM34 °FLight rain. Low clouds.7 mph93%29.50 "Hg4 mi
2:50 AM34 °FLight rain. Mostly cloudy.8 mph93%29.50 "Hg4 mi
2:20 AM34 °FLight rain. Mostly cloudy.8 mph93%29.53 "Hg4 mi
1:50 AM34 °FLight rain. Mostly cloudy.10 mph100%29.53 "Hg6 mi
1:20 AM34 °FLight rain. Mostly cloudy.9 mph100%29.53 "Hg6 mi
12:50 AM34 °FLight rain. Mostly cloudy.10 mph100%29.53 "Hg6 mi
12:20 AM34 °FLight rain. Mostly cloudy.10 mph100%29.56 "Hg6 mi
11:50 PM
Sat, Feb 13
36 °FLight rain. Mostly cloudy.9 mph93%29.56 "Hg6 mi
11:20 PM36 °FLight rain. Overcast.9 mph93%29.56 "HgN/A
Weather by CustomWeather, © 2016

See weather overviewHow to use our weather pages